Wind_Speed
22 22 21 19 17 16 15 14 13 11 10 8 7 6 4 3 3 4 4 4 4 4 4 5 6 6 5 4 4 4 4 5 5 4 3 4 4 4 5 5 5 5 5 5
24 23 22 21 20 18 18 16 14 13 12 11 9 7 6 5 4 4 4 4 4 3 3 5 5 5 6 5 6 5 5 6 7 5 4 4 4 5 6 5 5 6 6 6
25 24 23 22 21 20 19 17 16 15 13 13 11 9 7 6 5 4 5 5 5 5 4 4 5 6 5 5 5 6 7 7 7 6 4 4 4 5 6 7 7 7 7 8
27 26 25 23 22 21 20 18 18 17 16 14 12 10 8 7 6 6 6 6 6 6 5 5 6 6 6 6 6 7 7 6 6 5 5 5 5 6 7 7 8 9 9 9
27 26 25 24 23 22 22 21 19 18 18 16 15 13 9 8 7 6 7 7 7 7 7 7 7 7 7 6 6 7 6 5 5 5 6 6 6 7 8 8 9 10 10 10
28 27 26 25 24 24 23 23 22 20 19 18 16 14 11 9 8 7 7 8 8 9 9 8 7 7 7 7 6 7 7 6 6 6 7 7 7 7 8 9 10 10 10 10
29 28 27 26 26 26 25 24 23 23 22 20 17 16 12 10 10 9 9 8 9 9 9 8 8 8 8 7 8 8 7 7 7 7 7 7 7 8 8 9 9 10 10 10
29 28 28 27 27 26 25 25 24 24 23 21 19 18 14 13 12 11 11 10 9 8 7 8 8 9 9 9 9 9 8 8 8 9 10 9 9 9 9 9 9 9 10 10
28 28 28 28 28 27 27 26 25 25 24 23 21 18 15 14 14 14 12 11 10 9 9 9 10 10 10 11 10 10 10 9 9 10 10 10 10 11 11 10 10 10 10 11
29 28 28 28 29 28 27 26 27 26 25 24 21 19 16 15 14 15 13 12 10 9 10 11 12 12 11 11 11 11 10 10 10 10 11 11 11 12 12 11 11 11 12 12
29 29 28 29 29 28 27 27 27 27 27 25 23 21 17 16 15 15 14 13 11 11 11 11 11 12 12 12 12 12 12 12 11 11 11 12 12 12 12 11 12 12 12 12
29 29 29 29 28 29 28 27 27 27 27 26 25 22 19 18 17 17 16 15 13 12 12 11 13 12 12 11 12 13 13 13 12 12 11 12 12 12 12 12 13 13 13 13
29 29 28 29 29 29 29 28 28 27 27 26 25 23 20 19 17 17 17 16 14 14 13 13 12 12 11 11 13 14 13 13 12 11 11 12 12 12 13 13 14 13 13 13
28 28 28 28 27 27 27 27 27 27 27 26 25 23 21 19 18 17 17 17 16 15 15 14 13 13 13 13 13 12 13 12 11 11 11 12 12 12 12 13 13 13 12 13
28 28 27 28 28 28 27 27 27 27 27 26 25 24 21 20 20 18 18 18 18 17 15 14 14 14 14 14 14 13 13 12 12 12 12 13 13 13 13 13 13 13 13 13
29 28 27 27 27 28 28 27 27 27 26 26 25 24 22 21 21 20 19 20 19 19 16 15 15 14 14 14 14 14 13 12 12 13 13 14 14 14 14 14 14 14 14 14
29 29 28 28 27 27 28 27 27 26 26 26 25 23 22 21 21 21 21 21 20 18 16 15 15 15 15 15 15 14 14 14 14 14 14 15 15 15 15 15 15 15 15 14
30 30 29 29 29 30 28 27 27 26 25 25 24 23 22 21 21 21 21 20 18 17 17 16 16 16 16 17 17 17 17 17 16 15 15 15 15 15 15 15 15 16 15 14
31 30 30 30 30 30 29 28 27 26 25 24 23 22 22 21 20 21 20 19 18 17 17 16 17 17 18 18 18 18 18 17 16 16 16 16 16 16 16 16 16 16 15 15
31 31 30 30 30 30 28 27 27 26 25 24 23 22 21 21 20 20 20 19 18 19 18 18 18 19 19 19 18 17 17 18 17 17 17 17 16 16 16 17 17 17 16 17
34 33 32 31 31 30 28 27 27 28 25 23 23 22 21 21 20 21 21 21 20 20 20 20 20 19 19 18 17 17 18 19 18 18 17 17 17 17 17 17 17 17 18 18
34 33 33 32 32 31 29 28 28 28 26 25 24 23 22 22 22 22 22 22 22 22 21 21 20 19 18 18 19 19 18 18 18 18 18 18 18 18 18 18 18 19 19 19
34 33 33 33 32 31 30 29 30 29 28 26 25 23 23 22 22 23 23 23 22 22 23 22 21 21 20 20 19 19 19 19 19 19 18 18 19 19 19 19 19 20 21 20
34 33 33 32 31 31 31 30 30 29 28 27 26 24 23 22 23 23 24 23 23 23 24 23 22 23 22 21 21 21 21 20 20 20 19 19 20 20 20 21 21 22 21 21
34 33 33 32 31 31 30 30 29 29 29 27 26 25 25 24 25 25 25 25 24 24 24 24 24 24 24 23 22 22 22 22 21 21 21 20 21 21 22 22 23 23 22 22
34 33 33 33 32 31 31 30 29 28 29 29 27 26 25 25 25 25 25 24 24 24 23 24 24 24 23 23 22 22 22 21 21 21 21 21 21 21 22 23 23 23 23 22
Wind_Direction
225 225 225 226 227 225 224 224 224 226 228 223 216 223 228 261 295 307 319 343 351 359 4 359 348 342 345 347 340 329 324 320 315 322 325 320 327 328 324 324 326 329 330 321
224 225 224 225 225 224 224 225 227 228 227 227 225 235 241 253 277 289 303 318 320 324 341 346 339 327 333 338 336 331 319 311 309 303 310 308 307 311 309 311 307 307 313 314
224 224 224 223 223 224 225 226 225 228 229 230 230 237 239 250 257 267 280 295 304 299 299 319 329 311 318 322 320 328 326 314 312 306 305 314 308 304 303 301 296 293 300 304
223 223 223 223 223 223 224 225 226 226 230 233 236 240 242 250 261 267 273 281 295 301 304 308 314 307 306 311 317 319 318 327 324 318 315 314 310 307 304 300 295 289 294 297
222 223 222 222 223 223 225 227 227 228 233 238 241 244 240 247 260 270 276 279 293 299 294 292 294 302 302 307 314 315 310 319 323 317 312 311 307 306 307 304 304 301 298 294
221 222 221 221 222 223 224 225 227 229 235 239 242 245 243 247 260 269 277 282 291 301 297 292 287 292 296 296 305 309 307 308 306 304 306 307 308 310 314 311 310 308 302 299
220 220 220 220 221 223 224 226 227 230 235 240 243 245 247 252 256 265 272 280 288 295 302 289 287 288 286 292 298 300 300 301 297 291 296 303 307 309 308 310 309 312 309 304
219 219 219 219 222 224 226 228 231 235 239 243 247 248 251 253 257 267 276 281 281 285 299 300 291 285 282 287 295 297 296 296 293 291 297 299 308 306 307 307 305 304 304 303
218 218 219 219 221 223 226 228 230 234 239 243 247 250 252 254 257 267 275 281 281 280 290 294 290 284 281 279 281 288 294 295 294 293 297 300 303 305 303 300 299 300 303 301
217 218 218 220 222 223 225 228 230 234 240 244 247 250 255 254 259 264 270 274 275 280 288 293 292 287 282 278 279 282 288 291 293 295 293 296 300 301 299 295 294 296 297 296
217 218 219 221 223 225 226 228 232 236 240 245 250 251 253 256 259 261 263 266 272 277 285 289 291 289 280 277 275 281 285 286 289 291 292 294 297 298 296 294 291 292 292 292
218 219 220 222 225 227 229 231 234 238 242 246 251 253 254 257 259 261 261 262 267 275 278 284 293 290 283 279 282 284 284 281 283 287 290 292 294 297 295 292 292 292 291 292
219 220 221 222 225 227 230 233 236 240 243 246 249 251 251 255 257 260 261 261 266 271 277 284 290 292 288 286 287 284 281 277 279 284 289 292 292 292 291 291 293 292 291 291
221 222 223 225 228 231 233 236 239 242 244 246 248 249 249 251 255 258 258 260 263 267 278 281 283 286 286 284 286 283 281 276 275 277 284 289 290 291 293 297 299 295 293 292
222 223 223 224 226 229 233 236 239 243 245 247 247 249 249 249 251 255 258 260 262 267 274 278 279 282 284 282 278 278 280 276 273 276 282 286 287 290 293 295 297 296 295 294
223 224 224 225 226 228 232 236 239 242 245 247 248 248 248 248 251 253 258 262 265 266 271 274 274 279 285 283 276 276 274 273 275 277 277 280 285 290 293 295 297 295 294 298
224 226 227 228 228 230 232 235 239 241 243 246 249 249 248 249 250 252 255 259 265 264 268 269 271 276 278 281 278 274 273 272 274 276 274 275 281 288 292 292 294 296 296 295
224 227 229 230 230 233 234 236 239 242 243 246 249 250 251 251 251 252 254 258 261 266 273 273 275 277 277 276 274 271 270 270 271 273 273 274 278 284 287 291 294 295 295 292
225 227 230 231 233 235 235 237 240 242 244 246 248 250 251 252 252 252 255 257 261 268 273 273 276 279 278 277 273 268 269 270 273 273 273 276 278 282 284 289 292 292 292 293
227 228 231 232 234 236 237 238 239 242 245 245 247 249 251 252 252 252 253 257 262 267 272 274 275 278 280 280 278 271 269 270 271 271 273 275 276 279 284 289 291 290 291 292
229 229 231 233 235 237 238 239 239 242 244 246 248 250 252 252 253 252 255 259 263 268 272 274 276 276 277 279 277 275 274 269 267 268 270 272 273 277 283 287 288 291 291 290
230 231 233 234 236 237 237 238 239 242 243 245 247 250 251 253 252 252 256 259 264 267 270 273 274 275 274 275 273 272 271 270 267 268 270 271 272 276 280 284 288 289 292 290
232 232 234 236 237 237 238 240 240 241 243 245 246 248 250 252 252 253 255 258 262 266 269 272 271 269 270 271 271 269 268 268 267 267 269 270 272 275 278 281 285 289 290 289
232 233 236 237 238 237 239 239 239 240 242 244 243 244 249 252 254 254 256 258 262 266 269 271 270 269 268 268 270 269 267 267 267 267 269 270 271 273 276 279 282 287 290 289
232 234 236 238 237 238 239 239 239 240 241 242 242 243 247 251 254 257 258 259 261 265 269 269 271 271 269 266 267 267 265 267 266 267 269 271 273 275 278 279 281 284 287 291
232 234 236 237 238 239 240 238 238 238 239 240 242 244 247 251 254 258 259 260 262 265 266 269 270 267 267 264 261 263 264 266 267 267 269 271 274 276 279 280 281 282 285 288
Height
5879 5883 5886 5889 5892 5894 5896 5898 5900 5902 5903 5905 5906 5907 5908 5909 5909 5910 5910 5909 5909 5908 5908 5908 5907 5907 5906 5906 5906 5905 5905 5905 5904 5903 5903 5902 5901 5901 5901 5900 5899 5899 5898 5898
5876 5879 5883 5886 5888 5891 5894 5896 5899 5901 5902 5903 5905 5906 5907 5908 5909 5909 5909 5909 5908 5908 5908 5908 5907 5907 5906 5906 5905 5904 5903 5903 5903 5902 5902 5901 5901 5900 5900 5899 5899 5898 5897 5897
5872 5876 5879 5882 5886 5889 5892 5895 5897 5898 5900 5902 5904 5905 5906 5907 5907 5908 5909 5908 5908 5907 5906 5907 5906 5906 5906 5905 5905 5904 5902 5902 5902 5901 5901 5901 5900 5899 5899 5898 5897 5897 5896 5895
5867 5871 5875 5879 5882 5886 5889 5892 5894 5896 5898 5900 5902 5904 5905 5906 5906 5907 5907 5907 5907 5906 5905 5905 5905 5905 5905 5904 5903 5903 5902 5901 5901 5900 5900 5899 5899 5898 5897 5897 5896 5895 5895 5894
5863 5868 5872 5876 5880 5883 5886 5889 5891 5893 5895 5898 5900 5902 5905 5904 5905 5906 5906 5906 5906 5905 5904 5904 5904 5903 5903 5903 5902 5901 5901 5900 5899 5900 5899 5898 5898 5897 5896 5895 5894 5893 5893 5892
5860 5864 5868 5872 5876 5879 5883 5886 5888 5890 5892 5895 5898 5900 5902 5903 5904 5905 5905 5905 5904 5904 5903 5902 5902 5902 5902 5902 5901 5900 5899 5899 5898 5898 5898 5897 5896 5895 5894 5894 5893 5892 5891 5891
5855 5860 5864 5868 5872 5875 5879 5883 5885 5887 5889 5892 5895 5896 5900 5901 5902 5903 5903 5903 5902 5902 5901 5901 5901 5901 5901 5900 5900 5899 5898 5897 5897 5896 5896 5895 5894 5893 5892 5892 5891 5891 5890 5889
5851 5856 5860 5864 5868 5872 5875 5879 5883 5885 5887 5890 5892 5893 5897 5898 5899 5900 5900 5900 5900 5900 5900 5899 5899 5899 5899 5898 5898 5897 5896 5896 5896 5895 5894 5894 5893 5892 5891 5890 5889 5889 5888 5887
5847 5852 5857 5860 5864 5868 5871 5875 5879 5881 5883 5886 5888 5891 5894 5895 5896 5897 5897 5898 5898 5898 5898 5898 5897 5896 5896 5895 5895 5895 5894 5894 5894 5893 5893 5892 5891 5890 5889 5888 5887 5887 5886 5885
5843 5848 5852 5856 5860 5863 5868 5871 5874 5877 5879 5881 5885 5887 5890 5892 5893 5894 5895 5895 5895 5896 5896 5896 5895 5894 5893 5893 5893 5893 5893 5892 5891 5891 5890 5890 5889 5888 5887 5885 5885 5884 5883 5882
5838 5844 5848 5852 5855 5859 5863 5867 5870 5873 5875 5878 5881 5886 5887 5889 5890 5891 5892 5892 5893 5893 5894 5894 5893 5891 5891 5891 5891 5891 5890 5890 5889 5889 5888 5887 5887 5885 5883 5882 5882 5881 5881 5880
5834 5839 5843 5848 5852 5855 5859 5862 5866 5869 5871 5874 5877 5884 5883 5885 5886 5887 5888 5889 5890 5890 5891 5890 5890 5888 5887 5888 5887 5887 5887 5887 5887 5886 5886 5885 5884 5883 5882 5881 5880 5879 5878 5877
5830 5834 5839 5843 5848 5851 5854 5857 5861 5864 5867 5869 5873 5879 5879 5881 5882 5883 5884 5886 5886 5887 5887 5887 5886 5885 5885 5885 5885 5884 5884 5883 5883 5883 5883 5882 5882 5880 5879 5878 5877 5876 5875 5874
5825 5830 5835 5840 5843 5846 5850 5853 5856 5860 5862 5865 5868 5872 5875 5877 5878 5880 5881 5882 5883 5883 5884 5883 5883 5883 5882 5882 5881 5881 5880 5880 5880 5880 5880 5879 5878 5878 5877 5875 5874 5873 5872 5871
5820 5825 5830 5834 5838 5841 5845 5848 5852 5854 5857 5861 5864 5867 5870 5872 5874 5876 5877 5878 5879 5880 5880 5880 5880 5880 5879 5879 5878 5878 5877 5877 5877 5876 5876 5876 5875 5875 5874 5872 5871 5870 5869 5868
5816 5821 5825 5829 5832 5836 5839 5843 5846 5849 5852 5855 5858 5862 5865 5867 5869 5871 5872 5873 5874 5875 5876 5876 5876 5876 5876 5875 5875 5874 5874 5874 5874 5873 5873 5873 5872 5871 5870 5869 5868 5867 5866 5865
5811 5816 5820 5824 5827 5831 5834 5838 5841 5844 5847 5850 5853 5858 5860 5862 5864 5866 5867 5868 5869 5870 5871 5872 5872 5872 5872 5871 5871 5871 5871 5871 5870 5870 5869 5869 5869 5868 5867 5866 5865 5863 5862 5861
5806 5811 5815 5818 5823 5825 5832 5833 5836 5839 5842 5845 5848 5851 5854 5857 5859 5860 5862 5864 5865 5866 5867 5867 5867 5867 5867 5866 5867 5867 5867 5866 5866 5866 5866 5866 5865 5865 5864 5863 5862 5860 5859 5858
5801 5805 5809 5813 5816 5820 5825 5828 5831 5834 5837 5840 5843 5846 5848 5851 5853 5855 5857 5859 5861 5862 5862 5862 5862 5862 5862 5862 5862 5862 5862 5862 5862 5862 5862 5862 5861 5861 5860 5859 5858 5856 5855 5854
5795 5799 5803 5807 5810 5814 5820 5823 5825 5830 5832 5835 5838 5840 5843 5845 5848 5851 5852 5854 5856 5856 5857 5857 5857 5857 5858 5857 5857 5858 5858 5858 5858 5858 5857 5857 5857 5857 5856 5855 5854 5853 5852 5851
5788 5792 5796 5800 5804 5808 5813 5816 5820 5824 5828 5830 5833 5835 5837 5840 5843 5845 5847 5848 5850 5851 5851 5852 5851 5852 5852 5853 5853 5853 5853 5853 5853 5853 5853 5853 5853 5853 5852 5851 5850 5849 5848 5847
5782 5786 5790 5794 5798 5805 5807 5810 5814 5818 5821 5824 5827 5829 5832 5834 5836 5838 5840 5842 5843 5844 5845 5846 5846 5847 5847 5847 5848 5848 5848 5848 5848 5848 5848 5848 5848 5848 5848 5847 5846 5845 5843 5842
5775 5780 5784 5789 5794 5798 5801 5804 5808 5811 5814 5818 5821 5823 5826 5828 5830 5832 5834 5836 5837 5838 5839 5839 5840 5841 5841 5842 5842 5842 5842 5842 5842 5843 5843 5843 5843 5843 5842 5842 5841 5840 5838 5836
5768 5773 5777 5782 5787 5791 5795 5798 5801 5804 5808 5811 5814 5817 5820 5822 5824 5826 5828 5829 5830 5831 5832 5832 5833 5834 5834 5835 5836 5836 5836 5836 5837 5837 5837 5837 5837 5837 5837 5836 5835 5834 5833 5831
5761 5766 5770 5775 5780 5784 5788 5791 5794 5798 5802 5805 5808 5810 5813 5815 5817 5819 5820 5822 5823 5824 5824 5825 5826 5827 5828 5828 5829 5830 5830 5830 5831 5831 5831 5831 5831 5831 5830 5830 5829 5828 5827 5825
5755 5759 5764 5768 5772 5777 5781 5784 5788 5791 5795 5799 5801 5804 5806 5809 5810 5812 5813 5814 5815 5816 5817 5818 5819 5820 5820 5821 5822 5823 5823 5824 5825 5825 5825 5825 5825 5825 5824 5823 5822 5821 5820 5819